Location: Unspecified
(0.0000°N, 0.0000°E)
Time: 12:10:24
(UTC+00:00)

Hubble Space Telescope - Pass Details

Date: 07 December 2019
Orbit: 536 x 540 km, 28.5° (Epoch: 10 December)

Event Time Altitude Azimuth Distance (km) Brightness Sun altitude
Rises 18:15:26 0° 279° (W) 2,665 5.4 -5.5°
Reaches altitude 10° 18:17:58 10° 266° (W) 1,776 4.9 -6.1°
Maximum altitude 18:21:23 25° 209° (SSW) 1,096 3.1 -6.9°
Drops below altitude 10° 18:24:49 10° 153° (SSE) 1,780 3.4 -7.7°
Sets 18:27:22 0° 139° (SE) 2,672 4.1 -8.3°
